TimeEST,TemperatureF,Dew PointF,Humidity,Sea Level PressureIn,VisibilityMPH,Wind Direction,Wind SpeedMPH,Gust SpeedMPH,PrecipitationIn,Events,Conditions,WindDirDegrees,DateUTC
12:00 AM,34.5,27.1,74,30.14,-9999.0,NE,4.6,-,N/A,,Unknown,50,2012-11-04 04:00:00
1:00 AM,34.0,27.1,76,30.15,-9999.0,ENE,4.6,-,N/A,,Unknown,70,2012-11-04 05:00:00
1:00 AM,34,27,68,30.16,,East,3.5,,,,,100,2012-11-04 06:00:00
1:00 AM,34.0,27.3,77,30.16,-9999.0,East,3.5,-,N/A,,Unknown,100,2012-11-04 06:00:00
2:00 AM,33.8,28.4,81,30.15,-9999.0,ENE,3.5,-,N/A,,Unknown,70,2012-11-04 07:00:00
3:00 AM,34.0,26.6,74,30.15,-9999.0,ENE,3.5,-,N/A,,Unknown,60,2012-11-04 08:00:00
4:00 AM,33.8,27.1,77,30.15,-9999.0,NE,4.6,-,N/A,,Unknown,50,2012-11-04 09:00:00
5:00 AM,33.6,27.1,77,30.15,-9999.0,ENE,3.5,-,N/A,,Unknown,70,2012-11-04 10:00:00
6:00 AM,33.6,27.3,78,30.15,-9999.0,ENE,3.5,-,N/A,,Unknown,70,2012-11-04 11:00:00
7:00 AM,33,28,73,30.16,,ENE,4.6,,,,,60,2012-11-04 12:00:00
7:00 AM,33.4,27.7,79,30.16,-9999.0,ENE,4.6,-,N/A,,Unknown,60,2012-11-04 12:00:00
8:00 AM,33.6,27.7,79,30.17,-9999.0,East,2.3,-,N/A,,Unknown,80,2012-11-04 13:00:00
9:00 AM,34.5,28.2,78,30.17,-9999.0,NE,9.2,-,N/A,,Unknown,50,2012-11-04 14:00:00
10:00 AM,35.2,27.7,74,30.17,-9999.0,NE,9.2,-,N/A,,Unknown,40,2012-11-04 15:00:00
11:00 AM,36.1,28.0,72,30.16,-9999.0,NE,11.5,-,N/A,,Unknown,40,2012-11-04 16:00:00
12:00 PM,36.5,28.6,73,30.16,-9999.0,NNE,8.1,-,N/A,,Unknown,30,2012-11-04 17:00:00
1:00 PM,38,29,59,30.14,,North,10.4,,,,,0,2012-11-04 18:00:00
1:00 PM,37.9,28.8,70,30.14,-9999.0,North,10.4,-,N/A,,Unknown,360,2012-11-04 18:00:00
2:00 PM,37.9,28.2,68,30.13,-9999.0,North,11.5,-,N/A,,Unknown,350,2012-11-04 19:00:00
3:00 PM,36.5,27.7,70,30.14,-9999.0,North,10.4,-,N/A,,Unknown,360,2012-11-04 20:00:00
4:00 PM,36.0,27.0,70,30.15,-9999.0,North,9.2,-,N/A,,Unknown,350,2012-11-04 21:00:00
5:00 PM,35.8,27.0,70,30.15,-9999.0,North,6.9,-,N/A,,Unknown,10,2012-11-04 22:00:00
6:00 PM,35.1,28.2,76,30.15,-9999.0,NNE,8.1,-,N/A,,Unknown,20,2012-11-04 23:00:00
7:00 PM,34,29,75,30.16,,NNE,6.9,,,,,30,2012-11-05 00:00:00
7:00 PM,33.6,29.1,84,30.16,-9999.0,NNE,6.9,-,N/A,,Unknown,30,2012-11-05 00:00:00
8:00 PM,-9999,-9999,N/A,30.16,-9999.0,NNE,6.9,-,N/A,,Unknown,30,2012-11-05 01:00:00
9:00 PM,32.9,29.1,86,30.16,-9999.0,NE,4.6,-,N/A,,Unknown,50,2012-11-05 02:00:00
10:00 PM,33.3,28.0,81,30.16,-9999.0,NE,5.8,-,N/A,,Unknown,50,2012-11-05 03:00:00